International Skating Union - Official Site

ISU World Cup Heerenveen
December 11-13, 2015

Draw | Lap Times | Index | World Cup

Referee: Susan  SANDVIG-SHOBE  (USA)
Starter: Åke  FALK  (SWE)
StartTime: EndTime: Air Temp: Ice Temp: Humidity:
14:55 16:19 15℃ -12.1℃ 39.5%
Result 5000m Men Division A
Rankings as of Dec 13 2015 6:02PM
Rank: No.: Name: Nation: Time: Behind: Points:
1 92 Sven  Kramer NED NED 6:14.99200m - 18.55 - (18.5)
600m - 47.53 - (28.9)
1000m - 1:17.25 - (29.7)
1400m - 1:47.11 - (29.8)
1800m - 2:17.10 - (29.9)
2200m - 2:46.66 - (29.5)
2600m - 3:16.42 - (29.7)
3000m - 3:45.71 - (29.2)
3400m - 4:15.53 - (29.8)
3800m - 4:45.07 - (29.5)
4200m - 5:14.97 - (29.8)
4600m - 5:44.75 - (29.7)
5000m - 6:14.99 - (30.2)
100
2 83 Jorrit  Bergsma NED NED 6:16.41200m - 18.67 - (18.6)
600m - 47.71 - (29.0)
1000m - 1:17.16 - (29.4)
1400m - 1:47.00 - (29.8)
1800m - 2:16.66 - (29.6)
2200m - 2:46.53 - (29.8)
2600m - 3:16.24 - (29.7)
3000m - 3:46.09 - (29.8)
3400m - 4:15.65 - (29.5)
3800m - 4:45.56 - (29.9)
4200m - 5:15.36 - (29.8)
4600m - 5:45.79 - (30.4)
5000m - 6:16.41 - (30.6)
1.42 80
3 5 Bart  Swings BEL BEL 6:20.80200m - 19.07 - (19.0)
600m - 48.03 - (28.9)
1000m - 1:17.76 - (29.7)
1400m - 1:47.98 - (30.2)
1800m - 2:17.96 - (29.9)
2200m - 2:48.32 - (30.3)
2600m - 3:18.43 - (30.1)
3000m - 3:48.59 - (30.1)
3400m - 4:18.81 - (30.2)
3800m - 4:49.27 - (30.4)
4200m - 5:19.71 - (30.4)
4600m - 5:50.19 - (30.4)
5000m - 6:20.80 - (30.6)
5.81 70
4 111 Sverre  Lunde Pedersen NOR NOR 6:20.98200m - 19.19 - (19.1)
600m - 49.11 - (29.9)
1000m - 1:19.24 - (30.1)
1400m - 1:49.43 - (30.1)
1800m - 2:19.79 - (30.3)
2200m - 2:49.94 - (30.1)
2600m - 3:20.34 - (30.3)
3000m - 3:50.44 - (30.0)
3400m - 4:20.94 - (30.4)
3800m - 4:51.32 - (30.3)
4200m - 5:21.31 - (29.9)
4600m - 5:51.11 - (29.7)
5000m - 6:20.98 - (29.8)
5.99 60
5 39 Alexis  Contin FRA FRA 6:22.39200m - 19.51 - (19.5)
600m - 49.11 - (29.5)
1000m - 1:19.13 - (30.0)
1400m - 1:49.25 - (30.1)
1800m - 2:19.75 - (30.4)
2200m - 2:49.94 - (30.1)
2600m - 3:20.36 - (30.4)
3000m - 3:50.79 - (30.4)
3400m - 4:21.13 - (30.3)
3800m - 4:51.43 - (30.2)
4200m - 5:21.53 - (30.1)
4600m - 5:51.81 - (30.2)
5000m - 6:22.39 - (30.5)
7.40 50
6 86 Douwe  de Vries NED NED 6:23.04200m - 19.11 - (19.1)
600m - 48.80 - (29.6)
1000m - 1:18.79 - (29.9)
1400m - 1:48.98 - (30.1)
1800m - 2:19.20 - (30.2)
2200m - 2:49.44 - (30.2)
2600m - 3:19.85 - (30.4)
3000m - 3:50.25 - (30.3)
3400m - 4:20.68 - (30.4)
3800m - 4:51.24 - (30.5)
4200m - 5:21.78 - (30.5)
4600m - 5:52.33 - (30.5)
5000m - 6:23.04 - (30.7)
8.05 45
7 91 Erik Jan  Kooiman NED NED 6:23.93200m - 20.18 - (20.1)
600m - 50.41 - (30.2)
1000m - 1:20.34 - (29.9)
1400m - 1:50.42 - (30.0)
1800m - 2:20.63 - (30.2)
2200m - 2:50.88 - (30.2)
2600m - 3:21.30 - (30.4)
3000m - 3:51.66 - (30.3)
3400m - 4:22.18 - (30.5)
3800m - 4:52.67 - (30.4)
4200m - 5:23.13 - (30.4)
4600m - 5:53.62 - (30.4)
5000m - 6:23.93 - (30.3)
8.94 40
8 40 Patrick  Beckert GER GER 6:24.64200m - 19.33 - (19.3)
600m - 49.09 - (29.7)
1000m - 1:19.41 - (30.3)
1400m - 1:49.82 - (30.4)
1800m - 2:19.93 - (30.1)
2200m - 2:50.16 - (30.2)
2600m - 3:20.55 - (30.3)
3000m - 3:51.24 - (30.6)
3400m - 4:21.94 - (30.6)
3800m - 4:52.62 - (30.6)
4200m - 5:23.32 - (30.6)
4600m - 5:53.94 - (30.6)
5000m - 6:24.64 - (30.7)
9.65 35
9 100 Arjan  Stroetinga NED NED 6:25.19200m - 19.12 - (19.1)
600m - 48.55 - (29.4)
1000m - 1:18.83 - (30.2)
1400m - 1:49.42 - (30.5)
1800m - 2:19.73 - (30.3)
2200m - 2:50.01 - (30.2)
2600m - 3:20.29 - (30.2)
3000m - 3:50.66 - (30.3)
3400m - 4:21.19 - (30.5)
3800m - 4:51.74 - (30.5)
4200m - 5:22.42 - (30.6)
4600m - 5:53.50 - (31.0)
5000m - 6:25.19 - (31.6)
10.20 30
10 118 Peter  Michael NZL NZL 6:25.64200m - 20.27 - (20.2)
600m - 50.00 - (29.7)
1000m - 1:19.52 - (29.5)
1400m - 1:50.23 - (30.7)
1800m - 2:19.87 - (29.6)
2200m - 2:50.48 - (30.6)
2600m - 3:20.59 - (30.1)
3000m - 3:51.41 - (30.8)
3400m - 4:21.94 - (30.5)
3800m - 4:52.96 - (31.0)
4200m - 5:23.64 - (30.6)
4600m - 5:55.17 - (31.5)
5000m - 6:25.64 - (30.4)
10.65 25
11 50 Andrea  Giovannini ITA ITA 6:28.43200m - 18.98 - (18.9)
600m - 48.45 - (29.4)
1000m - 1:18.99 - (30.5)
1400m - 1:49.48 - (30.4)
1800m - 2:20.07 - (30.5)
2200m - 2:50.88 - (30.8)
2600m - 3:21.60 - (30.7)
3000m - 3:52.47 - (30.8)
3400m - 4:23.43 - (30.9)
3800m - 4:54.50 - (31.0)
4200m - 5:25.66 - (31.1)
4600m - 5:57.09 - (31.4)
5000m - 6:28.43 - (31.3)
13.44 21
12 104 Håvard  Bøkko NOR NOR 6:29.00200m - 18.81 - (18.8)
600m - 48.69 - (29.8)
1000m - 1:18.87 - (30.1)
1400m - 1:49.35 - (30.4)
1800m - 2:19.71 - (30.3)
2200m - 2:50.41 - (30.7)
2600m - 3:21.22 - (30.8)
3000m - 3:52.02 - (30.7)
3400m - 4:23.15 - (31.1)
3800m - 4:54.47 - (31.3)
4200m - 5:25.85 - (31.3)
4600m - 5:57.22 - (31.3)
5000m - 6:29.00 - (31.7)
14.01 18
13 10 Jordan  Belchos CAN CAN 6:29.22200m - 18.94 - (18.9)
600m - 48.18 - (29.2)
1000m - 1:18.45 - (30.2)
1400m - 1:48.94 - (30.4)
1800m - 2:19.30 - (30.3)
2200m - 2:49.71 - (30.4)
2600m - 3:20.53 - (30.8)
3000m - 3:51.56 - (31.0)
3400m - 4:22.72 - (31.1)
3800m - 4:54.22 - (31.5)
4200m - 5:25.78 - (31.5)
4600m - 5:57.26 - (31.4)
5000m - 6:29.22 - (31.9)
14.23 16
14 42 Moritz  Geisreiter GER GER 6:32.72200m - 19.09 - (19.0)
600m - 48.86 - (29.7)
1000m - 1:19.66 - (30.7)
1400m - 1:50.95 - (31.2)
1800m - 2:21.84 - (30.8)
2200m - 2:52.63 - (30.7)
2600m - 3:23.43 - (30.8)
3000m - 3:54.51 - (31.0)
3400m - 4:25.78 - (31.2)
3800m - 4:57.30 - (31.5)
4200m - 5:28.86 - (31.5)
4600m - 6:00.72 - (31.8)
5000m - 6:32.72 - (31.9)
17.73 14
15 110 Ole Bjørnsmoen   Næss NOR NOR 6:33.06200m - 19.40 - (19.4)
600m - 49.41 - (30.0)
1000m - 1:20.16 - (30.7)
1400m - 1:50.96 - (30.7)
1800m - 2:21.86 - (30.9)
2200m - 2:52.83 - (30.9)
2600m - 3:23.79 - (30.9)
3000m - 3:54.82 - (31.0)
3400m - 4:26.03 - (31.2)
3800m - 4:57.58 - (31.5)
4200m - 5:29.37 - (31.7)
4600m - 6:01.14 - (31.7)
5000m - 6:33.06 - (31.9)
18.07 12
16 64 Ryosuke  Tsuchiya JPN JPN 6:34.04200m - 18.79 - (18.7)
600m - 49.41 - (30.6)
1000m - 1:20.41 - (31.0)
1400m - 1:51.60 - (31.1)
1800m - 2:22.73 - (31.1)
2200m - 2:54.05 - (31.3)
2600m - 3:25.21 - (31.1)
3000m - 3:56.49 - (31.2)
3400m - 4:27.70 - (31.2)
3800m - 4:59.31 - (31.6)
4200m - 5:30.88 - (31.5)
4600m - 6:02.50 - (31.6)
5000m - 6:34.04 - (31.5)
19.05 10